Location: Mainz-Finthen
(49.9906°N, 8.1713°E)
Time: 04:31:59
(UTC+00:00)

BEESAT - Pass Details

Date: 10 December 2021
Orbit: 699 x 708 km, 98.6° (Epoch: 18 January)

Event Time Altitude Azimuth Distance (km) Brightness Sun altitude
Rises 05:52:46 0° 155° (SSE) 3,087 ? -12.4°
Reaches altitude 10° 05:55:01 10° 153° (SSE) 2,174 ? -12.0°
Maximum altitude 05:59:44 67° 72° (ENE) 769 ? -11.3°
Drops below altitude 10° 06:04:30 10° 350° (N) 2,194 ? -10.6°
Sets 06:06:47 0° 348° (NNW) 3,118 ? -10.3°
